Regional Weather Roundup
Issued by NWS

Home | Current Version | Previous Version | Graphics & Text | Print | Product List | Glossary On
Versions: 1 2 3 4 5 6 7 8 9 10 11 12 13 14 15 16 17 18 19 20 21 22 23 24 25 26 27 28 29 30 31 32 33 34 35 36 37 38 39 40 41 42 43 44 45 46 47 48 49 50
000
ASUS43 KIND 251409
RWRIN

WEATHER ROUNDUP FOR INDIANA
NATIONAL WEATHER SERVICE INDIANAPOLIS IN
1000 AM EDT THU MAY 25 2017

NOTE: "FAIR" INDICATES FEW OR NO CLOUDS BELOW 12,000 FEET WITH NO
SIGNIFICANT WEATHER AND/OR OBSTRUCTIONS TO VISIBILITY.

* - STATION DOES NOT REPORT WEATHER SUCH AS PRECIPITATION OR FOG.

+ - STATION NOT QUALITY CONTROLLED BY THE NATIONAL WEATHER SERVICE.
    USE DATA WITH CAUTION...ESPECIALLY DEWPOINT AND RELATIVE
    HUMIDITY OBSERVATIONS.

INZ001>003-010>013-019-020-251500-
NORTHWEST INDIANA

CITY           SKY/WX    TMP DP  RH WIND       PRES   REMARKS
GARY /AIRPORT/ CLOUDY    52  50  93 NW17G29   29.61R FOG
KNOX *+        CLOUDY    52  52 100 N14       29.55R
LA PORTE +     CLOUDY    53  52  97 N14       29.56R FOG
MICHIGAN CITY+ CLOUDY    50  50 100 N9        29.57R
MONTICELLO +   CLOUDY    55  53  95 NW17G23   29.54R FOG
RENSSELAER +   CLOUDY    54  52  94 NW14      29.58R FOG
VALPARAISO     CLOUDY    54  51  90 NW7       29.58R

$$

LMZ046-743>745-251500-
SOUTHERN LAKE MICHIGAN

STATION/POSITION TIME  TEMP    WIND        PRES    WAVE
                       AIR SEA DIR/SP/G            HT
                 (UTC) (F)     (DEG/KT/KT) (MB)    (FT)
BURNS HARBOR     1340   50     330/ 16/ 21 1002.0R
MICHIGAN CITY    1340   49     330/ 20/ 21   N/A
5NW MICH CITY    1400   49 52  330/ 16/ 21   N/A     5

$$

INZ004-005-014>016-021>024-251500-
NORTH CENTRAL INDIANA

CITY           SKY/WX    TMP DP  RH WIND       PRES   REMARKS
ELKHART        CLOUDY    57  55  94 N5        29.53R
GOSHEN         CLOUDY    60  55  83 N13       29.51R
LOGANSPORT +   CLOUDY    54  54 100 NW10G16   29.53R FOG
PERU/GRISSOM   CLOUDY    59  59 100 NW13      29.49R
ROCHESTER +    CLOUDY   N/A N/A N/A N10       29.52R
SOUTH BEND     CLOUDY    56  55  97 N12       29.54R
WARSAW +       CLOUDY    59  55  88 N10       29.50R

$$

INZ006>009-017-018-025>027-251500-
NORTHEAST INDIANA

CITY           SKY/WX    TMP DP  RH WIND       PRES   REMARKS
ANGOLA *+      CLOUDY    57  46  67 N7        29.48R
AUBURN +       CLOUDY    61  57  88 N10       29.48R
FORT WAYNE     LGT RAIN  61  58  90 N12       29.46R
HUNTINGTON +   LGT RAIN  60  58  96 N7        29.47R
KENDALLVILLE + CLOUDY    58  58  99 N10       29.49R

$$

INZ028-029-035-036-043>045-051>053-251500-
WEST CENTRAL INDIANA

CITY           SKY/WX    TMP DP  RH WIND       PRES   REMARKS
CRAWFORDSVL +  CLOUDY    54  54 100 NW15G21   29.55R
GREENCASTLE +  CLOUDY    54  54 100 NW9G20    29.56R FOG
LAFAYETTE      CLOUDY    58  56  93 NW18G24   29.54R
TERRE HAUTE    CLOUDY    57  52  83 NW13G24   29.58R

$$

INZ030>032-037>040-046>048-054>057-064-065-251500-
CENTRAL INDIANA

CITY           SKY/WX    TMP DP  RH WIND       PRES   REMARKS
ANDERSON       LGT RAIN N/A N/A N/A NW12      29.47R
CP ATTERBURY + CLOUDY    55  54  94 NW13      29.50R
COLUMBUS       LGT RAIN  55  54  94 NW14G21   29.49R
FISHERS *+     CLOUDY    54  54 100 NW12G20   29.50R
FRANKFORT +    CLOUDY    57  56  95 NW14G22   29.54R FOG
GREENWOOD *+   CLOUDY    56  55  96 NW13G20   29.50R
INDIANAPOLIS   DRIZZLE   56  55  97 NW20      29.51R FOG
-EAGLE CREEK   RAIN      56  54  93 NW14G23   29.50R FOG
KOKOMO +       CLOUDY    59  57  93 N16       29.50R
MARION +       CLOUDY    59  57  94 N10       29.48R FOG
MT COMFORT *+  CLOUDY    55  55 100 NW16      29.48R
SHELBYVILLE    CLOUDY    58  54  86 NW17      29.47R FOG
ZIONSVILLE +   LGT RAIN  54  54  98 NW14G20   29.51R

$$

INZ033-034-041-042-049-050-058-059-251500-
EAST CENTRAL INDIANA

CITY           SKY/WX    TMP DP  RH WIND       PRES   REMARKS
MUNCIE         CLOUDY    62  59  90 N13       29.44R
RICHMOND +     PTSUNNY   59  55  88 NW5       29.44R

$$

INZ060-061-067>069-081>083-085>088-251500-
SOUTHWEST INDIANA

CITY           SKY/WX    TMP DP  RH WIND       PRES   REMARKS
EVANSVILLE     CLOUDY    62  54  74 W13G18    29.64R
HUNTINGBURG *+ CLOUDY    59  56  89 W16       29.60R
WASHINGTON +   CLOUDY    58  55  87 NW15G22   29.59R

$$

INZ062-063-066-070>080-084-089>092-251500-
SOUTH CENTRAL AND SOUTHEAST INDIANA

CITY           SKY/WX    TMP DP  RH WIND       PRES   REMARKS
BEDFORD +      LGT RAIN  55  54  94 W10       29.54R
BLOOMINGTON    LGT RAIN  56  53  90 NW12G18   29.54R FOG
MADISON *+     CLOUDY    55  54  94 W9        29.50R
NORTH VERNON + RAIN      55  54  94 W15       29.49R
SEYMOUR +      CLOUDY    59  57  94 W10       29.50

$$




USA.gov is the U.S. government's official web portal to all federal, state and local government web resources and services.